Radiation Dose at Monitoring Post of Fukushima Daini Nuclear Power Station
Date,Time,MP-1(microSv/h),MP-2(microSv/h),MP-3(microSv/h),MP-4(microSv/h),MP-5(microSv/h),MP-6(microSv/h),MP-7(microSv/h),Wind Direction,Wind Velocity(m/s),Rain
2019/07/06,00:00,0.184,0.167,0.277,0.260,0.263,0.137,0.086,east-southeast,0.9,No
2019/07/06,00:10,0.182,0.166,0.277,0.263,0.262,0.138,0.086,east-southeast,1.0,No
2019/07/06,00:20,0.182,0.167,0.279,0.261,0.265,0.138,0.086,-,CALM,No
2019/07/06,00:30,0.184,0.166,0.275,0.261,0.261,0.138,0.087,-,CALM,No
2019/07/06,00:40,0.183,0.168,0.278,0.262,0.265,0.139,0.087,-,CALM,Yes
2019/07/06,00:50,0.185,0.167,0.277,0.260,0.264,0.138,0.088,east-southeast,1.0,Yes
2019/07/06,01:00,0.184,0.167,0.277,0.262,0.264,0.138,0.087,east-southeast,1.2,No
2019/07/06,01:10,0.183,0.168,0.278,0.261,0.265,0.138,0.087,east,1.8,No
2019/07/06,01:20,0.185,0.166,0.276,0.263,0.262,0.138,0.086,east-northeast,1.0,No
2019/07/06,01:30,0.183,0.167,0.279,0.263,0.265,0.138,0.087,east,1.0,No
2019/07/06,01:40,0.185,0.168,0.277,0.261,0.264,0.138,0.087,northeast,2.0,No
2019/07/06,01:50,0.184,0.168,0.278,0.264,0.262,0.138,0.087,northeast,2.1,No
2019/07/06,02:00,0.182,0.167,0.277,0.260,0.266,0.139,0.087,east-northeast,2.0,No
2019/07/06,02:10,0.184,0.167,0.278,0.263,0.262,0.137,0.087,east-northeast,2.7,No
2019/07/06,02:20,0.183,0.167,0.277,0.261,0.265,0.139,0.087,east-northeast,1.9,No
2019/07/06,02:30,0.185,0.167,0.275,0.262,0.263,0.138,0.087,northeast,1.9,No
2019/07/06,02:40,0.183,0.167,0.279,0.263,0.265,0.137,0.087,northeast,2.0,No
2019/07/06,02:50,0.184,0.167,0.276,0.261,0.264,0.138,0.087,northeast,2.2,No
2019/07/06,03:00,0.186,0.167,0.278,0.264,0.263,0.137,0.088,northeast,1.9,No
2019/07/06,03:10,0.183,0.167,0.278,0.260,0.264,0.139,0.088,east-northeast,2.5,No
2019/07/06,03:20,0.184,0.169,0.276,0.262,0.263,0.138,0.087,northeast,2.7,No
2019/07/06,03:30,0.184,0.167,0.278,0.262,0.263,0.138,0.087,north-northeast,2.1,No
2019/07/06,03:40,0.183,0.167,0.276,0.260,0.264,0.139,0.087,north-northeast,1.8,No
2019/07/06,03:50,0.185,0.168,0.278,0.264,0.263,0.138,0.087,north-northeast,3.0,No
2019/07/06,04:00,0.183,0.167,0.277,0.261,0.266,0.138,0.087,north-northeast,2.6,No
2019/07/06,04:10,0.185,0.168,0.277,0.262,0.264,0.138,0.086,north,2.4,No
2019/07/06,04:20,0.185,0.168,0.277,0.261,0.264,0.138,0.088,north-northeast,2.2,No
2019/07/06,04:30,0.184,0.168,0.276,0.262,0.265,0.138,0.087,northeast,2.2,Yes
2019/07/06,04:40,0.185,0.167,0.278,0.263,0.263,0.138,0.088,northeast,2.4,No
2019/07/06,04:50,0.184,0.168,0.276,0.261,0.265,0.139,0.087,northeast,2.7,No
2019/07/06,05:00,0.185,0.167,0.278,0.262,0.263,0.138,0.087,north-northeast,3.3,No
2019/07/06,05:10,0.183,0.167,0.277,0.261,0.264,0.138,0.087,northeast,3.6,No
2019/07/06,05:20,0.184,0.168,0.275,0.263,0.264,0.138,0.086,north-northeast,4.1,No
2019/07/06,05:30,0.185,0.166,0.277,0.262,0.262,0.138,0.087,north-northeast,4.0,No
2019/07/06,05:40,0.183,0.168,0.275,0.261,0.265,0.138,0.086,northeast,3.7,No
2019/07/06,05:50,0.184,0.166,0.279,0.263,0.262,0.138,0.087,north-northeast,3.6,No
2019/07/06,06:00,0.183,0.167,0.277,0.260,0.265,0.137,0.086,north-northeast,4.0,No
2019/07/06,06:10,0.183,0.167,0.276,0.262,0.265,0.139,0.086,northeast,4.0,No
2019/07/06,06:20,0.184,0.166,0.277,0.262,0.261,0.137,0.086,north-northeast,3.5,No
2019/07/06,06:30,0.183,0.168,0.273,0.260,0.266,0.137,0.087,north-northeast,5.4,No
2019/07/06,06:40,0.185,0.167,0.277,0.262,0.262,0.138,0.087,north-northeast,4.2,No
2019/07/06,06:50,0.183,0.167,0.277,0.260,0.261,0.137,0.087,north-northeast,4.1,No
2019/07/06,07:00,0.184,0.165,0.276,0.262,0.264,0.137,0.086,north,4.8,Yes
2019/07/06,07:10,0.184,0.166,0.276,0.261,0.261,0.139,0.086,north,4.0,No
2019/07/06,07:20,0.183,0.167,0.275,0.260,0.262,0.137,0.087,north-northeast,4.8,No
2019/07/06,07:30,0.185,0.166,0.278,0.263,0.264,0.138,0.087,north,5.9,No
2019/07/06,07:40,0.183,0.167,0.276,0.260,0.261,0.137,0.087,north,5.0,No
2019/07/06,07:50,0.184,0.167,0.275,0.261,0.266,0.137,0.086,north,5.1,No
2019/07/06,08:00,0.184,0.166,0.278,0.263,0.263,0.139,0.087,north,5.6,No
2019/07/06,08:10,0.183,0.169,0.275,0.259,0.261,0.138,0.087,north,7.6,Yes
2019/07/06,08:20,0.185,0.166,0.277,0.262,0.265,0.137,0.087,north,7.4,Yes
2019/07/06,08:30,0.184,0.167,0.277,0.261,0.265,0.139,0.087,north-northeast,6.6,No
2019/07/06,08:40,0.184,0.168,0.275,0.260,0.263,0.138,0.087,north-northeast,6.6,No
2019/07/06,08:50,0.184,0.167,0.278,0.264,0.265,0.137,0.087,north,5.9,No
2019/07/06,09:00,0.183,0.168,0.275,0.260,0.262,0.138,0.086,north-northeast,6.5,No
2019/07/06,09:10,0.184,0.166,0.277,0.260,0.263,0.139,0.087,north,4.9,No
2019/07/06,09:20,0.184,0.168,0.277,0.262,0.263,0.137,0.086,north,5.9,No
2019/07/06,09:30,0.183,0.167,0.275,0.261,0.262,0.138,0.087,north,5.4,Yes
2019/07/06,09:40,0.185,0.167,0.279,0.261,0.264,0.138,0.087,north-northeast,6.2,Yes
2019/07/06,09:50,0.182,0.169,0.276,0.262,0.266,0.137,0.087,north-northeast,6.0,Yes
2019/07/06,10:00,0.185,0.168,0.279,0.260,0.262,0.140,0.088,north,5.1,Yes
2019/07/06,10:10,0.184,0.169,0.278,0.263,0.267,0.139,0.088,north,6.2,Yes
2019/07/06,10:20,0.184,0.167,0.277,0.260,0.264,0.139,0.088,north,5.2,No
2019/07/06,10:30,0.185,0.169,0.278,0.263,0.265,0.140,0.087,north,6.4,No
2019/07/06,10:40,0.182,0.167,0.276,0.261,0.265,0.139,0.087,north,6.3,No
2019/07/06,10:50,0.186,0.168,0.279,0.260,0.262,0.139,0.088,north,6.4,No
2019/07/06,11:00,0.185,0.168,0.277,0.262,0.264,0.139,0.087,north-northeast,7.3,No
2019/07/06,11:10,0.184,0.168,0.278,0.261,0.264,0.137,0.088,north,7.1,Yes
2019/07/06,11:20,0.186,0.168,0.277,0.261,0.263,0.139,0.088,north,7.0,Yes
2019/07/06,11:30,0.183,0.168,0.275,0.262,0.265,0.139,0.087,north,6.6,Yes
2019/07/06,11:40,0.184,0.168,0.278,0.259,0.262,0.138,0.087,north,7.3,No
2019/07/06,11:50,0.184,0.168,0.276,0.263,0.263,0.138,0.087,north,5.9,No
2019/07/06,12:00,0.183,0.167,0.276,0.261,0.264,0.138,0.087,north,6.3,No
2019/07/06,12:10,0.184,0.167,0.277,0.260,0.261,0.137,0.087,north,6.8,No
2019/07/06,12:20,0.184,0.165,0.274,0.262,0.264,0.139,0.086,north,5.3,No
2019/07/06,12:30,0.183,0.167,0.277,0.259,0.264,0.138,0.087,north,6.2,No
2019/07/06,12:40,0.185,0.166,0.277,0.260,0.261,0.137,0.087,north,7.0,No
2019/07/06,12:50,0.183,0.167,0.275,0.261,0.265,0.139,0.086,north,6.4,No
2019/07/06,13:00,0.184,0.166,0.278,0.258,0.262,0.137,0.087,north,5.6,No
2019/07/06,13:10,0.184,0.166,0.275,0.261,0.264,0.137,0.087,north,6.7,Yes
2019/07/06,13:20,0.184,0.168,0.278,0.262,0.264,0.138,0.087,north,7.0,No
2019/07/06,13:30,0.184,0.167,0.276,0.260,0.261,0.138,0.087,north,6.3,Yes
2019/07/06,13:40,0.183,0.167,0.277,0.261,0.265,0.137,0.086,north,6.4,Yes
2019/07/06,13:50,0.184,0.167,0.277,0.259,0.264,0.139,0.087,north,5.9,Yes
2019/07/06,14:00,0.184,0.167,0.276,0.261,0.263,0.137,0.088,north,5.1,Yes
2019/07/06,14:10,0.184,0.169,0.279,0.260,0.265,0.138,0.088,north,5.1,Yes
2019/07/06,14:20,0.184,0.167,0.275,0.260,0.262,0.139,0.088,north,6.0,No
2019/07/06,14:30,0.185,0.168,0.279,0.262,0.264,0.139,0.088,north,5.9,No
2019/07/06,14:40,0.186,0.166,0.276,0.260,0.263,0.139,0.088,north-northeast,7.6,No
2019/07/06,14:50,0.184,0.168,0.277,0.262,0.263,0.138,0.087,north-northeast,7.6,No
2019/07/06,15:00,0.185,0.167,0.277,0.260,0.264,0.139,0.087,north,6.4,No
2019/07/06,15:10,0.184,0.167,0.277,0.260,0.262,0.138,0.086,north-northeast,7.8,No
2019/07/06,15:20,0.184,0.166,0.278,0.261,0.265,0.137,0.086,north-northeast,8.1,No
2019/07/06,15:30,0.184,0.167,0.276,0.259,0.262,0.137,0.087,north-northeast,8.1,No
2019/07/06,15:40,0.183,0.167,0.278,0.261,0.264,0.138,0.086,north-northeast,6.3,Yes
2019/07/06,15:50,0.184,0.166,0.275,0.260,0.263,0.138,0.087,north-northeast,9.0,No
2019/07/06,16:00,0.184,0.167,0.278,0.261,0.261,0.138,0.086,north-northeast,9.2,No
2019/07/06,16:10,0.185,0.167,0.278,0.260,0.263,0.138,0.086,north-northeast,9.8,Yes
2019/07/06,16:20,0.183,0.169,0.277,0.261,0.262,0.138,0.087,north-northeast,8.4,Yes
2019/07/06,16:30,0.183,0.166,0.277,0.262,0.264,0.138,0.088,north-northeast,8.4,Yes
2019/07/06,16:40,0.185,0.169,0.276,0.260,0.264,0.138,0.089,north-northeast,10.9,Yes
2019/07/06,16:50,0.184,0.167,0.278,0.261,0.265,0.138,0.088,north-northeast,8.4,Yes
2019/07/06,17:00,0.186,0.169,0.277,0.261,0.265,0.139,0.089,north-northeast,8.4,Yes
2019/07/06,17:10,0.184,0.167,0.279,0.262,0.263,0.141,0.088,north-northeast,7.6,Yes
2019/07/06,17:20,0.185,0.168,0.276,0.262,0.265,0.139,0.088,north-northeast,6.7,Yes
2019/07/06,17:30,0.184,0.168,0.279,0.261,0.261,0.139,0.088,northeast,7.0,No
2019/07/06,17:40,0.185,0.168,0.277,0.262,0.265,0.139,0.088,northeast,8.6,No
2019/07/06,17:50,0.184,0.167,0.278,0.259,0.262,0.138,0.088,northeast,8.1,No
2019/07/06,18:00,0.185,0.168,0.277,0.262,0.263,0.139,0.087,northeast,8.5,Yes
2019/07/06,18:10,0.184,0.168,0.277,0.258,0.262,0.138,0.088,northeast,8.7,Yes
2019/07/06,18:20,0.184,0.168,0.277,0.261,0.264,0.139,0.088,north-northeast,7.6,Yes
2019/07/06,18:30,0.185,0.168,0.278,0.259,0.262,0.139,0.088,north-northeast,7.9,Yes
2019/07/06,18:40,0.184,0.168,0.278,0.262,0.262,0.139,0.088,northeast,7.6,Yes
2019/07/06,18:50,0.186,0.168,0.277,0.260,0.265,0.140,0.089,northeast,9.0,Yes
2019/07/06,19:00,0.184,0.169,0.278,0.260,0.262,0.139,0.088,north-northeast,9.0,Yes
2019/07/06,19:10,0.185,0.167,0.277,0.260,0.265,0.140,0.089,northeast,10.1,Yes
2019/07/06,19:20,0.183,0.169,0.278,0.261,0.263,0.139,0.089,northeast,7.9,Yes
2019/07/06,19:30,0.185,0.168,0.277,0.261,0.265,0.139,0.089,north-northeast,7.4,No
2019/07/06,19:40,0.183,0.167,0.277,0.259,0.263,0.138,0.087,northeast,9.0,Yes
2019/07/06,19:50,0.185,0.167,0.276,0.259,0.264,0.138,0.088,north-northeast,7.6,No
2019/07/06,20:00,0.184,0.167,0.278,0.258,0.261,0.139,0.088,north-northeast,8.4,Yes
2019/07/06,20:10,0.184,0.167,0.275,0.260,0.264,0.138,0.087,northeast,8.7,Yes
2019/07/06,20:20,0.183,0.167,0.279,0.258,0.263,0.138,0.087,northeast,8.1,Yes
2019/07/06,20:30,0.184,0.167,0.275,0.261,0.261,0.137,0.087,northeast,7.3,No
2019/07/06,20:40,0.183,0.167,0.277,0.257,0.263,0.138,0.087,northeast,8.8,No
2019/07/06,20:50,0.184,0.167,0.275,0.259,0.260,0.136,0.086,northeast,9.8,No
2019/07/06,21:00,0.182,0.166,0.276,0.258,0.263,0.137,0.087,northeast,10.0,No
2019/07/06,21:10,0.183,0.166,0.276,0.259,0.260,0.136,0.086,northeast,8.4,No
2019/07/06,21:20,0.184,0.166,0.274,0.259,0.263,0.136,0.087,northeast,9.0,No
2019/07/06,21:30,0.183,0.167,0.276,0.257,0.259,0.138,0.086,northeast,8.1,No
2019/07/06,21:40,0.184,0.166,0.276,0.259,0.263,0.137,0.086,north-northeast,6.6,No
2019/07/06,21:50,0.183,0.166,0.277,0.257,0.263,0.137,0.087,north-northeast,8.8,No
2019/07/06,22:00,0.184,0.166,0.275,0.259,0.262,0.137,0.087,north-northeast,8.8,Yes
2019/07/06,22:10,0.183,0.167,0.277,0.256,0.263,0.138,0.087,north-northeast,8.4,Yes
2019/07/06,22:20,0.183,0.166,0.274,0.261,0.261,0.137,0.088,north-northeast,8.7,Yes
2019/07/06,22:30,0.182,0.167,0.277,0.257,0.262,0.137,0.087,northeast,8.7,Yes
2019/07/06,22:40,0.183,0.166,0.275,0.259,0.262,0.137,0.087,northeast,8.4,Yes
2019/07/06,22:50,0.182,0.166,0.277,0.257,0.263,0.137,0.087,northeast,8.5,No
2019/07/06,23:00,0.184,0.166,0.275,0.259,0.261,0.136,0.086,northeast,9.8,No
2019/07/06,23:10,0.183,0.166,0.276,0.258,0.262,0.136,0.087,north-northeast,10.1,No
2019/07/06,23:20,0.184,0.166,0.275,0.259,0.259,0.137,0.086,northeast,9.0,No
2019/07/06,23:30,0.181,0.166,0.276,0.258,0.264,0.136,0.086,northeast,9.8,No
2019/07/06,23:40,0.183,0.166,0.276,0.257,0.260,0.136,0.085,northeast,8.4,No
2019/07/06,23:50,0.182,0.167,0.274,0.259,0.262,0.137,0.087,north-northeast,8.6,No
